This demonstration page uses our WeatherBlox Daily Observations layout. Learn more.

Left ArrowRight Arrow

Hourly Observations for October 15, 2016

Temp ( °F °C ) Dew Point ( °F °C ) Humidity (%) Winds ( mph kmh ) Pressure ( in mb ) Visibility ( mi km ) Precip ( " mm )
12:51 am 00:51 Clear 57 13.9 41 5 55 55 Calm 29.90 1012 10 16 0.00 0.00
1:51 am 01:51 Clear 56 13.3 41 5 57 57 Calm 29.90 1013 10 16 0.00 0.00
2:51 am 02:51 Clear 52 11.1 43 6.1 72 72 Calm 29.91 1013 10 16 0.00 0.00
3:51 am 03:51 Clear 53 11.7 42 5.6 66 66 ENE 3 6 29.90 1013 10 16 0.00 0.00
4:51 am 04:51 Clear 50 10 42 5.6 74 74 Calm 29.93 1013 10 16 0.00 0.00
5:51 am 05:51 Clear 50 10 41 5 71 71 ESE 3 6 29.95 1014 10 16 0.00 0.00
6:51 am 06:51 Sunny 51 10.6 43 6.1 74 74 Calm 29.96 1015 10 16 0.00 0.00
7:51 am 07:51 Sunny 58 14.4 38 3.3 48 48 SSE 6 9 29.98 1015 10 16 0.00 0.00
8:51 am 08:51 Sunny 66 18.9 39 3.9 37 37 ESE 6 9 29.98 1015 10 16 0.00 0.00
9:51 am 09:51 Sunny 74 23.3 36 2.2 25 25 ESE 9 15 29.97 1015 10 16 0.00 0.00
10:51 am 10:51 Sunny 78 25.6 36 2.2 22 22 SE 5 7 29.95 1014 10 16 0.00 0.00
11:51 am 11:51 Sunny 82 27.8 34 1.1 18 18 Calm 29.93 1013 10 16 0.00 0.00
12:51 pm 12:51 Sunny 86 30 35 1.7 16 16 SE 3 6 29.88 1012 10 16 0.00 0.00
1:51 pm 13:51 Sunny 87 30.6 36 2.2 16 16 NW 5 7 29.85 1011 10 16 0.00 0.00
2:51 pm 14:51 Sunny 88 31.1 36 2.2 16 16 undefined N/A 29.84 1011 10 16 0.00 0.00
3:51 pm 15:51 Sunny 88 31.1 37 2.8 16 16 VRB 7 11 29.83 1010 10 16 0.00 0.00
4:51 pm 16:51 Sunny 86 30 36 2.2 17 17 WNW 8 13 29.83 1010 10 16 0.00 0.00
5:51 pm 17:51 Clear 78 25.6 41 5 27 27 W 8 13 29.85 1011 10 16 0.00 0.00
6:51 pm 18:51 Clear 70 21.1 44 6.7 39 39 Calm 29.87 1012 10 16 0.00 0.00
7:51 pm 19:51 Clear 67 19.4 43 6.1 42 42 N 7 11 29.87 1012 10 16 0.00 0.00
8:51 pm 20:51 Clear 65 18.3 45 7.2 49 49 E 6 9 29.88 1012 10 16 0.00 0.00
9:51 pm 21:51 Clear 63 17.2 43 6.1 48 48 Calm 29.88 1012 10 16 0.00 0.00
10:51 pm 22:51 Clear 62 16.7 43 6.1 50 50 SSE 3 6 29.89 1012 10 16 0.00 0.00
11:51 pm 23:51 Clear 58 14.4 43 6.1 58 58 Calm 29.90 1012 10 16 0.00 0.00

Powered by AerisWeather